Regional Weather Roundup
Issued by NWS Goodland, KS

Home | Current Version | Previous Version | Graphics & Text | Print | Product List | Glossary On
Versions: 1 2 3 4 5 6 7 8 9 10 11 12 13 14 15 16 17 18 19 20 21 22 23 24 25 26 27 28 29 30 31 32 33 34 35 36 37 38 39 40 41 42 43 44 45 46 47 48 49 50
000
ASUS43 KGLD 311408
RWRGLD

GOODLAND FORECAST AREA HOURLY WEATHER ROUNDUP
NATIONAL WEATHER SERVICE GOODLAND KS
800 AM MDT MON AUG 31 2015

...OFFICIAL OBSERVATIONS...

CITY           SKY/WX    TMP DP  RH WIND       PRES   REMARKS
GOODLAND KS    SUNNY     65  54  67 NW10      29.98R
HILL CITY KS   SUNNY     69  64  84 SE6       29.94R
IMPERIAL NEB   SUNNY     65  53  65 SE5       29.96R
MCCOOK NEB     SUNNY     66  58  75 SE8       29.93S
AKRON CO       MOSUNNY   75  49  39 N17       30.05R
BURLINGTON CO  SUNNY     67  50  54 W12       30.00R
LIMON CO       MOSUNNY   70  48  45 NW12      30.09R
$$

...UNOFFICIAL OBSERVATIONS...

CITY           SKY/WX    TMP DP  RH WIND       PRES   REMARKS
COLBY KS       SUNNY     66  59  77 S10       29.95S
GOVE KS          N/A     65  32  29 MISG        N/A
LENORA KS        N/A     67  32  27 MISG        N/A
NORTON KS      SUNNY     68  61  77 SE12      29.93S
SHARON SPRINGS   N/A     64  56  76 S6          N/A
TRENTON NEB      N/A     66  32  28 CALM        N/A
KIT CARSON CO    N/A     67  51  56 MISG        N/A
YUMA CO          N/A     65  51  60 CALM        N/A
$$



USA.gov is the U.S. government's official web portal to all federal, state and local government web resources and services.